When you browse on this site, cookies collect data to enhance your experience and personalize the content and advertising you see.
Visit our Privacy Policy to learn more. By continuing to use the site, you agree to this use of cookies and data.
  • In Switzerland
  • List of Countries
  • For 7 days
  • Water Temperature
  • Satellite Maps
  • Weather Map
  • Weather Widgets
  • user-avatar
    Login

    Hourly Weather Trowbridge

    Today, 19 November, Monday

    Time Temperature Precipitation Wind Pressure Humidity
    00:00 +3°C° 0 mm 6 mps 764 mmHg 67%
    01:00 +3°C° 0 mm 6 mps 764 mmHg 71%
    02:00 +3°C° 0 mm 6 mps 763 mmHg 75%
    03:00 +3°C° 0 mm 6 mps 763 mmHg 78%
    04:00 +3°C° 0 mm 6 mps 763 mmHg 81%
    05:00 +3°C° 0 mm 6 mps 763 mmHg 84%
    06:00 +3°C° 0 mm 6 mps 762 mmHg 86%
    07:00 +3°C° 0 mm 6 mps 762 mmHg 82%
    08:00 +4°C° 0 mm 7 mps 762 mmHg 78%
    09:00 +5°C° 0 mm 7 mps 762 mmHg 74%
    10:00 +5°C° 0 mm 7 mps 762 mmHg 73%
    11:00 +5°C° 0 mm 7 mps 762 mmHg 71%
    12:00 +6°C° 0 mm 7 mps 762 mmHg 70%
    13:00 +6°C° 0 mm 7 mps 761 mmHg 70%
    14:00 +7°C° 0 mm 6 mps 761 mmHg 69%
    15:00 +7°C° 0 mm 6 mps 760 mmHg 69%
    16:00 +5°C° 0 mm 6 mps 760 mmHg 72%
    17:00 +4°C° 0 mm 6 mps 759 mmHg 74%
    18:00 +4°C° 0 mm 6 mps 759 mmHg 77%
    19:00 +4°C° 0 mm 6 mps 759 mmHg 77%
    20:00 +3°C° 0 mm 6 mps 759 mmHg 77%
    21:00 +3°C° 0 mm 6 mps 758 mmHg 77%
    22:00 +3°C° 0 mm 6 mps 758 mmHg 78%
    23:00 +3°C° 0 mm 6 mps 758 mmHg 79%

    Tomorrow, 20 November, Tuesday

    Time Temperature Precipitation Wind Pressure Humidity
    00:00 +2°C° 0 mm 6 mps 757 mmHg 79%
    01:00 +2°C° 0 mm 6 mps 757 mmHg 79%
    02:00 +2°C° 0 mm 6 mps 757 mmHg 79%
    03:00 +2°C° 0 mm 6 mps 756 mmHg 78%
    04:00 +1°C° 0 mm 6 mps 756 mmHg 78%
    05:00 +1°C° 0 mm 6 mps 756 mmHg 78%
    06:00 +1°C° 0 mm 6 mps 755 mmHg 79%
    07:00 +2°C° 0 mm 6 mps 755 mmHg 78%
    08:00 +2°C° 0 mm 7 mps 755 mmHg 77%
    09:00 +2°C° 0 mm 7 mps 755 mmHg 76%
    10:00 +3°C° 0.1 mm 7 mps 754 mmHg 74%
    11:00 +3°C° 0.1 mm 7 mps 754 mmHg 72%
    12:00 +4°C° 0.1 mm 8 mps 753 mmHg 69%
    13:00 +4°C° 0.1 mm 7 mps 753 mmHg 71%
    14:00 +4°C° 0.1 mm 7 mps 753 mmHg 72%
    15:00 +3°C° 0.1 mm 6 mps 752 mmHg 73%
    16:00 +3°C° 0.1 mm 6 mps 752 mmHg 76%
    17:00 +2°C° 0.1 mm 5 mps 752 mmHg 80%
    18:00 +2°C° 0.1 mm 5 mps 752 mmHg 83%
    19:00 +3°C° 0 mm 4 mps 752 mmHg 85%
    20:00 +1°C° 0 mm 4 mps 752 mmHg 87%
    21:00 +1°C° 0 mm 4 mps 752 mmHg 89%
    22:00 +2°C° 0 mm 3 mps 752 mmHg 90%
    23:00 +2°C° 0 mm 3 mps 751 mmHg 90%

    Day after tomorrow, 21 November, Wednesday

    Time Temperature Precipitation Wind Pressure Humidity
    00:00 +2°C° 0 mm 3 mps 751 mmHg 91%
    01:00 +1°C° 0 mm 3 mps 751 mmHg 91%
    02:00 +2°C° 0 mm 2 mps 751 mmHg 92%
    03:00 +2°C° 0 mm 2 mps 751 mmHg 93%
    04:00 +2°C° 0 mm 2 mps 751 mmHg 93%
    05:00 +2°C° 0 mm 2 mps 751 mmHg 93%
    06:00 +3°C° 0 mm 1 mps 751 mmHg 94%
    07:00 +3°C° 0 mm 1 mps 751 mmHg 93%
    08:00 +2°C° 0 mm 2 mps 752 mmHg 93%
    09:00 +2°C° 0 mm 2 mps 752 mmHg 92%
    10:00 +4°C° 0 mm 2 mps 753 mmHg 87%
    11:00 +4°C° 0 mm 3 mps 754 mmHg 82%
    12:00 +7°C° 0 mm 3 mps 754 mmHg 77%
    13:00 +7°C° 0.1 mm 3 mps 755 mmHg 78%
    14:00 +7°C° 0.1 mm 3 mps 755 mmHg 79%
    15:00 +7°C° 0.1 mm 3 mps 755 mmHg 80%
    16:00 +5°C° 0 mm 4 mps 756 mmHg 83%
    17:00 +4°C° 0 mm 4 mps 757 mmHg 85%
    18:00 +3°C° 0 mm 4 mps 758 mmHg 88%
    19:00 +3°C° 0 mm 4 mps 758 mmHg 88%
    20:00 +3°C° 0 mm 4 mps 759 mmHg 87%
    21:00 +3°C° 0 mm 4 mps 759 mmHg 87%
    22:00 +2°C° 0 mm 3 mps 760 mmHg 88%
    23:00 +2°C° 0 mm 3 mps 760 mmHg 88%

    22 November, Thursday

    Time Temperature Precipitation Wind Pressure Humidity
    00:00 +2°C° 0 mm 3 mps 760 mmHg 89%
    01:00 +1°C° 0 mm 3 mps 760 mmHg 89%
    02:00 +1°C° 0 mm 3 mps 760 mmHg 90%
    03:00 +1°C° 0 mm 3 mps 760 mmHg 90%
    04:00 +1°C° 0 mm 3 mps 760 mmHg 90%
    05:00 0°C° 0 mm 3 mps 761 mmHg 90%
    06:00 0°C° 0 mm 3 mps 761 mmHg 91%
    07:00 +1°C° 0 mm 3 mps 761 mmHg 89%
    08:00 +1°C° 0 mm 3 mps 761 mmHg 88%
    09:00 +1°C° 0 mm 3 mps 761 mmHg 86%
    10:00 +3°C° 0 mm 3 mps 761 mmHg 81%
    11:00 +4°C° 0 mm 3 mps 761 mmHg 76%
    12:00 +5°C° 0 mm 3 mps 761 mmHg 71%
    13:00 +5°C° 0 mm 3 mps 760 mmHg 73%
    14:00 +5°C° 0 mm 3 mps 760 mmHg 75%
    15:00 +5°C° 0 mm 3 mps 760 mmHg 77%
    16:00 +4°C° 0 mm 3 mps 760 mmHg 80%
    17:00 +2°C° 0 mm 3 mps 760 mmHg 84%
    18:00 +1°C° 0 mm 3 mps 760 mmHg 87%
    19:00 +1°C° 0 mm 3 mps 760 mmHg 87%
    20:00 +1°C° 0 mm 3 mps 760 mmHg 87%
    21:00 +1°C° 0 mm 3 mps 760 mmHg 88%
    22:00 +1°C° 0 mm 3 mps 760 mmHg 89%
    23:00 +1°C° 0 mm 3 mps 760 mmHg 90%

    23 November, Friday

    Time Temperature Precipitation Wind Pressure Humidity
    00:00 +2°C° 0 mm 3 mps 760 mmHg 91%
    01:00 +2°C° 0 mm 3 mps 760 mmHg 92%
    02:00 +2°C° 0 mm 3 mps 760 mmHg 93%
    03:00 +2°C° 0 mm 3 mps 760 mmHg 94%
    04:00 +3°C° 0 mm 3 mps 760 mmHg 94%
    05:00 +4°C° 0 mm 3 mps 760 mmHg 94%
    06:00 +4°C° 0 mm 3 mps 760 mmHg 95%
    07:00 +5°C° 0 mm 3 mps 760 mmHg 94%
    08:00 +5°C° 0 mm 3 mps 760 mmHg 94%
    09:00 +7°C° 0 mm 3 mps 760 mmHg 94%
    10:00 +8°C° 0 mm 3 mps 760 mmHg 91%
    11:00 +9°C° 0 mm 3 mps 760 mmHg 87%
    12:00 +10°C° 0 mm 4 mps 759 mmHg 84%
    13:00 +10°C° 0 mm 4 mps 759 mmHg 85%
    14:00 +10°C° 0 mm 3 mps 759 mmHg 86%
    15:00 +10°C° 0 mm 3 mps 759 mmHg 86%
    16:00 +9°C° 0 mm 3 mps 759 mmHg 89%
    17:00 +8°C° 0 mm 3 mps 758 mmHg 92%
    18:00 +7°C° 0 mm 3 mps 758 mmHg 94%
    19:00 +7°C° 0 mm 3 mps 758 mmHg 95%
    20:00 +5°C° 0 mm 3 mps 758 mmHg 95%
    21:00 +5°C° 0 mm 3 mps 758 mmHg 96%
    22:00 +5°C° 0.1 mm 3 mps 758 mmHg 96%
    23:00 +5°C° 0.1 mm 4 mps 757 mmHg 96%

    24 November, Saturday

    Time Temperature Precipitation Wind Pressure Humidity
    00:00 +5°C° 0.1 mm 4 mps 757 mmHg 96%
    01:00 +5°C° 0 mm 3 mps 757 mmHg 96%
    02:00 +5°C° 0 mm 3 mps 757 mmHg 96%
    03:00 +4°C° 0 mm 3 mps 756 mmHg 96%
    04:00 +4°C° 0 mm 3 mps 756 mmHg 96%
    05:00 +4°C° 0 mm 3 mps 756 mmHg 96%
    06:00 +4°C° 0 mm 3 mps 755 mmHg 96%
    07:00 +4°C° 0.2 mm 3 mps 755 mmHg 96%
    08:00 +4°C° 0.2 mm 3 mps 755 mmHg 96%
    09:00 +5°C° 0.2 mm 3 mps 755 mmHg 95%
    10:00 +5°C° 0.4 mm 3 mps 755 mmHg 95%
    11:00 +7°C° 0.4 mm 3 mps 755 mmHg 94%
    12:00 +7°C° 0.4 mm 3 mps 755 mmHg 93%
    13:00 +7°C° 0.2 mm 3 mps 755 mmHg 93%
    14:00 +7°C° 0.2 mm 2 mps 756 mmHg 93%
    15:00 +7°C° 0.2 mm 2 mps 756 mmHg 93%
    16:00 +7°C° 0.1 mm 2 mps 756 mmHg 94%
    17:00 +6°C° 0.1 mm 2 mps 756 mmHg 95%
    18:00 +6°C° 0.1 mm 2 mps 757 mmHg 96%
    19:00 +5°C° 0 mm 2 mps 757 mmHg 95%
    20:00 +5°C° 0 mm 2 mps 758 mmHg 95%
    21:00 +5°C° 0 mm 2 mps 758 mmHg 95%
    22:00 +5°C° 0 mm 1 mps 758 mmHg 95%
    23:00 +5°C° 0 mm 1 mps 758 mmHg 94%
    Show more